[[{"header":{"parameterUnit":"m.s-1","parameterCategory":1,"la1":30.2991,"la2":30.254,"lo1":-89.0895,"lo2":-89.0444,"dy":0.0017,"dx":0.0017,"nx":28,"ny":28,"refTime":"2023-11-05T03:00:00:Z","depth":0,"parameterNumber":2,"parameterNumberName":"U-component_of_WINDS"},"data":[0,0,0,0,0,0,0,0,0,0,0,0,0,0,0,0,0,0,0,0,0,0,0,0,0,0,0,0,0,0,0,0,0,0,0,0,0,0,0,0,0,0,0,0,0,0,0,0,0,0,0,0,0,0,0,0,0,0,0.3154,0.3155,0,0.3249,0.325,0.3251,0.3289,0.3288,0.3288,0.3288,0.3383,0.3386,0.3388,0,0,0,0,0,0,0,0,0,0,0,0,0,0.3003,0.3006,0.3154,0.3156,0.3157,0.3249,0.325,0.3252,0.3289,0.3288,0.3288,0.3288,0.3382,0.3385,0.3389,0,0,0,0,0,0,0,0,0,0,0,0,0,0.308,0.3006,0.3154,0.3186,0.319,0.3249,0.325,0.3252,0.3289,0.3288,0.3288,0.3288,0.3381,0.3385,0.3389,0.3422,0,0,0.3402,0.3403,0,0,0,0,0,0,0,0,0.3076,0.3086,0.3181,0.3184,0.3189,0.3257,0.3232,0.3309,0.3289,0.3251,0.3288,0.3288,0.3341,0.3348,0.3367,0.3426,0.343,0.3402,0.3404,0.3406,0.3407,0,0,0,0,0,0,0,0.307,0.3082,0.3192,0.3182,0.3187,0.3195,0.3206,0.3247,0.3297,0.3255,0.3257,0.3268,0.3343,0.3363,0.3369,0.3432,0.3402,0.3406,0.3408,0.341,0.3522,0.3522,0,0,0,0,0,0,0.306,0.3077,0.3189,0.3195,0.313,0.3198,0.321,0.3235,0.3297,0.3306,0.3269,0.327,0.3356,0.3365,0.3373,0.3415,0.3406,0.341,0.3412,0.3521,0.3522,0.3523,0,0,0,0,0,0,0.3057,0.307,0.3185,0.3137,0.3152,0.3201,0.3229,0.3237,0.3257,0.3307,0.3316,0.328,0.3356,0.3367,0.3409,0.3419,0.3412,0.3416,0.3521,0.3522,0.3522,0.35,0,0,0,0,0,0,0.3052,0.3068,0.3082,0.3137,0.3155,0.322,0.323,0.3239,0.3264,0.3267,0.332,0.3328,0.3357,0.3403,0.3413,0.3425,0.3419,0.352,0.3521,0.3522,0.35,0.35,0.3499,0,0,0,0,0,0.3047,0.3071,0.3082,0.3096,0.3173,0.3221,0.3231,0.3264,0.3265,0.3279,0.3311,0.3327,0.3416,0.3407,0.3419,0.3431,0.352,0.3521,0.3522,0.35,0.35,0.3499,0,0,0,0,0,0,0.3015,0.3079,0.3092,0.3135,0.3173,0.3227,0.3245,0.3262,0.3299,0.33,0.3338,0.335,0.3389,0.3414,0.3403,0.3466,0.3469,0.3473,0.3448,0.3448,0.3448,0.3441,0.3422,0,0,0,0,0,0.3013,0.3048,0.3102,0.3135,0.3153,0.3196,0.3218,0.324,0.328,0.3295,0.3331,0.3368,0.3405,0.3428,0.3464,0.3504,0.3515,0.3518,0.3518,0.3517,0.352,0.3542,0.3544,0.3526,0.3526,0.3526,0,0,0.301,0.3049,0.3069,0.3129,0.3161,0.3195,0.3209,0.3244,0.327,0.3301,0.3343,0.337,0.3414,0.3455,0.3475,0.3477,0.3527,0.3519,0.3518,0.3521,0.3544,0.3545,0.3547,0.3527,0.3527,0.3527,0,0,0.3021,0.3054,0.3086,0.3117,0.3165,0.3193,0.32,0.3252,0.3272,0.3315,0.3338,0.3369,0.3431,0.3462,0.3485,0.3507,0.3523,0.3518,0.3517,0.3538,0.354,0.3541,0.3549,0.3551,0.352,0.352,0.352,0,0.301,0.3064,0.3099,0.3134,0.316,0.3189,0.3221,0.3249,0.3306,0.3322,0.3325,0.3403,0.3435,0.3483,0.3489,0.3507,0.3516,0.3512,0.3537,0.3538,0.354,0.3548,0.3551,0.3519,0.352,0.352,0.352,0,0.3048,0.3085,0.3104,0.3159,0.3187,0.322,0.3259,0.3283,0.3302,0.333,0.3373,0.3412,0.3457,0.347,0.3489,0.3521,0.3521,0.3529,0.3533,0.354,0.3548,0.3552,0.3518,0.3518,0.3519,0.3519,0,0,0.3043,0.3117,0.3123,0.3148,0.3203,0.3231,0.3265,0.3309,0.3329,0.3367,0.3395,0.3447,0.3456,0.3482,0.3505,0.3523,0.3538,0.353,0.3531,0.353,0.3575,0.3568,0.3571,0.3549,0.355,0.355,0.3571,0,0.3061,0.3124,0.3156,0.3205,0.3238,0.3267,0.3296,0.3332,0.3359,0.3391,0.342,0.3456,0.3465,0.3481,0.3501,0.3532,0.3548,0.3531,0.3575,0.3577,0.3563,0.3575,0.3568,0.3586,0.3574,0.3575,0.3575,0,0.3091,0.3129,0.3181,0.3232,0.3247,0.3273,0.3316,0.3347,0.3388,0.3406,0.3435,0.3458,0.3493,0.3494,0.3543,0.3531,0.3551,0.3569,0.3571,0.3576,0.3576,0.3581,0.3593,0.3595,0.3581,0.358,0.358,0,0.3081,0.3146,0.3185,0.3206,0.3266,0.3283,0.3309,0.335,0.3374,0.3411,0.3428,0.3468,0.349,0.3521,0.3553,0.3551,0.3599,0.3603,0.3615,0.3614,0.3624,0.3622,0.3639,0.3636,0.3636,0.3636,0.3636,0,0.3098,0.3129,0.3182,0.3206,0.3241,0.3277,0.331,0.3338,0.3374,0.3404,0.343,0.3457,0.3498,0.353,0.3555,0.3592,0.3602,0.3617,0.3623,0.3615,0.3612,0.3628,0.3628,0.3637,0.3637,0.3637,0.3636,0,0.3093,0.313,0.3175,0.3228,0.3242,0.3266,0.3311,0.3335,0.3363,0.34,0.341,0.3454,0.3493,0.3528,0.3579,0.3596,0.3633,0.3641,0.3619,0.3623,0.3633,0.3631,0.366,0.3665,0.3659,0.3659,0.3659,0,0.3102,0.3126,0.3182,0.3204,0.323,0.3265,0.329,0.3327,0.3352,0.34,0.3418,0.3459,0.3494,0.3554,0.359,0.3629,0.3638,0.3645,0.3644,0.3634,0.3638,0.3636,0.3638,0.3645,0.3645,0.3645,0.3644,0,0.3113,0.313,0.3166,0.3208,0.3238,0.3273,0.3308,0.3325,0.3368,0.3394,0.3435,0.3461,0.3514,0.3554,0.3597,0.3622,0.364,0.3645,0.3649,0.3641,0.3627,0.3634,0.3618,0.3644,0.3644,0.3644,0.3644,0.3644,0.3115,0.3138,0.3181,0.322,0.3251,0.3284,0.3309,0.334,0.3375,0.3421,0.344,0.3481,0.3521,0.358,0.3606,0.3638,0.3641,0.3648,0.365,0.3651,0.3649,0.3622,0.3645,0.3646,0.3646,0.3646,0.3646,0,0.3128,0.3157,0.3192,0.3242,0.3272,0.3287,0.3327,0.3351,0.3387,0.3423,0.3457,0.3503,0.3542,0.358,0.3621,0.3639,0.3648,0.3648,0.3647,0.3653,0.3644,0.3636,0.364,0.364,0.364,0.364,0.364,0.364,0.3138,0.3177,0.3199,0.3254,0.3283,0.3324,0.3345,0.3375,0.3404,0.3454,0.3487,0.3512,0.3549,0.3593,0.3629,0.3639,0.3653,0.365,0.3663,0.3654,0.3654,0.3654,0.3646,0.3653,0.3653,0.3669,0.367,0.367]},{"header":{"parameterUnit":"m.s-1","parameterCategory":1,"la1":30.2991,"la2":30.254,"lo1":-89.0895,"lo2":-89.0444,"dy":0.0017,"dx":0.0017,"nx":28,"ny":28,"refTime":"2023-11-05T03:00:00:Z","depth":0,"parameterNumber":3,"parameterNumberName":"V-component_of_WINDS"},"data":[0,0,0,0,0,0,0,0,0,0,0,0,0,0,0,0,0,0,0,0,0,0,0,0,0,0,0,0,0,0,0,0,0,0,0,0,0,0,0,0,0,0,0,0,0,0,0,0,0,0,0,0,0,0,0,0,0,0,3.0676,3.0675,0,3.0645,3.0644,3.0644,3.0596,3.0595,3.0594,3.0593,3.0562,3.0561,3.0561,0,0,0,0,0,0,0,0,0,0,0,0,0,3.0693,3.0693,3.0676,3.0675,3.0675,3.0645,3.0644,3.0644,3.0596,3.0595,3.0594,3.0593,3.0562,3.0561,3.0561,0,0,0,0,0,0,0,0,0,0,0,0,0,3.0676,3.0693,3.0676,3.0647,3.0644,3.0645,3.0644,3.0644,3.0596,3.0595,3.0594,3.0592,3.0562,3.0561,3.0561,3.0587,0,0,3.0561,3.0561,0,0,0,0,0,0,0,0,3.0677,3.0675,3.0652,3.0649,3.0646,3.0623,3.0639,3.0625,3.0596,3.0615,3.0593,3.0592,3.0583,3.0581,3.0578,3.0586,3.0584,3.0561,3.0561,3.0561,3.0561,0,0,0,0,0,0,0,3.0678,3.0676,3.0663,3.0652,3.0648,3.0636,3.0632,3.0636,3.0606,3.0613,3.0609,3.0606,3.0581,3.0578,3.0577,3.0584,3.0561,3.0561,3.0561,3.0561,3.061,3.0611,0,0,0,0,0,0,3.0684,3.0678,3.0664,3.0662,3.0659,3.0637,3.0632,3.0632,3.0606,3.0601,3.0607,3.0604,3.0579,3.0577,3.0576,3.0603,3.0561,3.0561,3.0561,3.0609,3.061,3.0612,0,0,0,0,0,0,3.0684,3.0683,3.0666,3.0669,3.0666,3.0638,3.0637,3.0632,3.0629,3.0602,3.0597,3.061,3.0578,3.0576,3.0584,3.0602,3.0561,3.0561,3.0607,3.0609,3.0611,3.066,0,0,0,0,0,0,3.0685,3.0683,3.0693,3.067,3.0666,3.0675,3.0638,3.0632,3.0629,3.0624,3.0603,3.0598,3.0577,3.0585,3.0584,3.0601,3.0561,3.0605,3.0608,3.061,3.0657,3.0663,3.0669,0,0,0,0,0,3.0686,3.0708,3.0694,3.0692,3.0677,3.0676,3.0674,3.0649,3.063,3.064,3.0622,3.0599,3.06,3.0586,3.0585,3.0602,3.0604,3.0607,3.061,3.0654,3.0662,3.0669,0,0,0,0,0,0,3.0734,3.0704,3.0688,3.0704,3.0693,3.0668,3.0679,3.0659,3.0653,3.0649,3.0618,3.0613,3.0626,3.0615,3.06,3.0625,3.0598,3.0601,3.0632,3.0639,3.0646,3.0648,3.0561,0,0,0,0,0,3.0747,3.0748,3.0722,3.0739,3.0734,3.0708,3.0706,3.0688,3.0675,3.067,3.0654,3.0642,3.064,3.0639,3.0636,3.0655,3.0649,3.0666,3.0672,3.0677,3.068,3.0689,3.0696,3.0622,3.0622,3.0621,0,0,3.0773,3.0757,3.076,3.0748,3.0737,3.074,3.0704,3.0708,3.0709,3.0671,3.0678,3.0665,3.0651,3.0665,3.067,3.0656,3.0699,3.0681,3.0686,3.0685,3.0693,3.07,3.0706,3.0624,3.0623,3.0623,0,0,3.0821,3.0809,3.0821,3.0811,3.0795,3.0778,3.0781,3.0759,3.0749,3.0756,3.0727,3.0728,3.0725,3.0715,3.071,3.0754,3.0732,3.0754,3.0786,3.0795,3.0801,3.0806,3.0821,3.0827,3.0757,3.0757,3.0757,0,3.0855,3.0857,3.083,3.0835,3.0831,3.0796,3.0808,3.08,3.0784,3.0781,3.0766,3.0761,3.0748,3.0759,3.077,3.0767,3.0769,3.0756,3.0802,3.0807,3.0811,3.0825,3.0831,3.0759,3.0759,3.0759,3.0759,0,3.09,3.0902,3.0913,3.0899,3.0895,3.0904,3.0878,3.0878,3.086,3.0844,3.0851,3.0834,3.0827,3.0828,3.081,3.0836,3.0828,3.0808,3.078,3.0821,3.0834,3.0839,3.0763,3.0762,3.0762,3.0761,0,0,3.0978,3.0947,3.0952,3.0945,3.0925,3.0926,3.0933,3.0925,3.0926,3.0916,3.0921,3.0918,3.0899,3.0894,3.0874,3.0882,3.0917,3.0861,3.086,3.0871,3.0944,3.0959,3.0966,3.0903,3.0904,3.0904,3.0945,0,3.1021,3.1032,3.1007,3.1023,3.1025,3.0992,3.0997,3.0986,3.0971,3.097,3.0953,3.0952,3.0927,3.0923,3.0929,3.0912,3.0932,3.0909,3.0906,3.0907,3.0911,3.0973,3.0989,3.1028,3.095,3.0951,3.0952,0,3.1074,3.1067,3.1083,3.1062,3.1061,3.1067,3.1058,3.1057,3.1043,3.1031,3.1025,3.1002,3.1007,3.0981,3.0987,3.0972,3.0969,3.0961,3.0962,3.096,3.0931,3.0972,3.104,3.1046,3.0959,3.0959,3.0958,0,3.1129,3.1123,3.1132,3.1127,3.1102,3.1107,3.1097,3.1081,3.1078,3.107,3.1067,3.106,3.1056,3.1051,3.1027,3.101,3.1035,3.1007,3.1025,3.1026,3.1032,3.1032,3.11,3.1031,3.1031,3.1031,3.1031,0,3.118,3.1191,3.1156,3.1161,3.1173,3.1144,3.1156,3.1143,3.1129,3.1131,3.1102,3.1105,3.1073,3.1072,3.1053,3.106,3.1059,3.1049,3.1044,3.1052,3.1053,3.1049,3.1046,3.1033,3.1032,3.1032,3.1032,0,3.1243,3.122,3.1227,3.1203,3.1197,3.1207,3.1186,3.119,3.1173,3.1176,3.1175,3.1148,3.1145,3.1121,3.1112,3.11,3.1114,3.1104,3.1119,3.1115,3.1135,3.1133,3.1202,3.121,3.1137,3.1138,3.1139,0,3.1277,3.1285,3.1262,3.1261,3.1252,3.1251,3.1248,3.122,3.1218,3.1202,3.1208,3.1202,3.1196,3.1193,3.1173,3.1166,3.1155,3.118,3.1154,3.1161,3.1154,3.1154,3.1154,3.1185,3.1186,3.1187,3.1187,0,3.134,3.1328,3.1324,3.1316,3.1313,3.1306,3.1296,3.1297,3.1266,3.1265,3.1262,3.1257,3.1248,3.1243,3.1233,3.1222,3.1199,3.1196,3.1199,3.1207,3.1215,3.1211,3.1133,3.1194,3.1193,3.1193,3.1193,3.1192,3.1389,3.1394,3.1378,3.1375,3.1365,3.1357,3.1359,3.1343,3.1339,3.133,3.1314,3.1313,3.1297,3.1281,3.1272,3.127,3.1257,3.1263,3.1264,3.1266,3.127,3.1216,3.1268,3.1268,3.1268,3.1268,3.1267,0,3.145,3.1438,3.1435,3.1423,3.142,3.14,3.1388,3.1387,3.1386,3.1374,3.1369,3.1365,3.136,3.1339,3.1331,3.1334,3.1323,3.1332,3.1332,3.1329,3.1282,3.1279,3.1341,3.1341,3.1341,3.1341,3.1341,3.1341,3.1481,3.1489,3.1475,3.1477,3.1465,3.1464,3.1459,3.1451,3.1441,3.1438,3.1433,3.142,3.1404,3.1395,3.1388,3.1382,3.1381,3.1393,3.1384,3.134,3.1333,3.1326,3.1323,3.1393,3.1393,3.1431,3.1432,3.1432]}]]